Location: Mount Kobau Star Party
(49.1167°N, 119.7333°W)
Time: 07:37:02
(UTC-07:00)

ACS3 Solar Sail - Pass Details

Date: 19 June 2024
Orbit: 992 x 1023 km, 97.4° (Epoch: 11 July)

Event Time Altitude Azimuth Distance (km) Brightness Sun altitude
Exits shadow 23:03:20 - 190° (S) 2,830 6.8 -12.9°
Reaches altitude 10° 23:03:31 10° 190° (S) 2,762 6.7 -12.9°
Maximum altitude 23:09:29 47° 264° (W) 1,291 5.6 -13.3°
Drops below altitude 10° 23:15:29 10° 338° (NNW) 2,766 8.6 -13.8°
Sets 23:18:05 0° 344° (NNW) 3,719 9.7 -13.9°
